Location: Unspecified
(49.2170°N, 0.0000°E)
Time: 08:18:39
(UTC+00:00)

Vanguard 3 - Pass Details

Date: 30 January 2021
Orbit: 508 x 3262 km, 33.4° (Epoch: 08 March)

Event Time Altitude Azimuth Distance (km) Brightness Sun altitude
Rises 05:30:08 0° 251° (WSW) 3,631 - -20.2°
Reaches altitude 10° 05:32:55 10° 235° (SW) 3,003 - -19.8°
Exits shadow 05:34:07 14° 227° (SW) 2,822 9.5 -19.6°
Maximum altitude 05:38:37 23° 186° (S) 2,785 9.8 -18.8°
Drops below altitude 10° 05:46:59 10° 142° (SE) 4,575 11.6 -17.5°
Sets 05:52:36 0° 130° (SE) 6,104 12.6 -16.6°
